Home   Weather   Kathmandu   Past weeks
Flag for Nepal

Past Weather in Kathmandu, Nepal — Yesterday and Last 2 Weeks

Now
73 °F

Scattered clouds.


Feels Like: 72 °F
Forecast: 83 / 63 °F
Wind: 3 mph from South

Location: Kathmandu Airport

Current Time: Aug 25, 2019 at 7:14:45 pm

Latest Report: Aug 25, 2019 at 6:35 pm


Visibility: N/A

Pressure: 29.89 "Hg (25.71 "Hg at 1305m altitude)

Humidity: 89%

Dew Point: 70 °F

Location of KathmanduLocation

Past Weather in Kathmandu — Graph

°F

Kathmandu Temperature Yesterday

Maximum temperature yesterday: 82 °F (at 12:05 pm)
Minimum temperature yesterday: 68 °F (at 2:35 am)
Average temperature yesterday: 74 °F

High & Low Weather Summary for the Past Weeks

 TemperatureHumidityPressure
High90 °F (Aug 12, 12:05 pm)100% (Aug 11, 2:05 am)30.01 "Hg (Aug 11, 2:05 am)
Low68 °F (Aug 11, 5:35 am)52% (Aug 12, 11:35 am)29.74 "Hg (Aug 11, 3:05 pm)
Average76 °F86%29.89 "Hg
* Reported Aug 10 6:05 pm — Aug 25 6:05 pm, Kathmandu. Weather by CustomWeather, © 2019

Note: Actual official high and low records may vary slightly from our data, if they occured in-between our weather recording intervals... More about our weather records

Advertising

Kathmandu Weather History for the Previous 24 Hours

Scroll right to see more
 ConditionsComfort  
Time TempWeatherWind HumidityBarometerVisibility
6:05 pm
Sun, Aug 25
73 °FScattered clouds.3 mph89%29.89 "HgN/A
5:35 pm73 °FBroken clouds.No wind89%29.89 "Hg5 mi
5:05 pm73 °FBroken clouds.No wind89%29.89 "Hg5 mi
4:35 pm73 °FBroken clouds.2 mph89%29.86 "Hg5 mi
4:05 pm72 °FBroken clouds.7 mph94%29.89 "Hg5 mi
3:35 pm70 °FRain. Broken clouds.9 mph100%29.89 "Hg4 mi
3:05 pm75 °FLight rain. Broken clouds.14 mph83%29.89 "Hg4 mi
2:35 pm81 °FBroken clouds.7 mph66%29.86 "Hg5 mi
2:05 pm82 °FBroken clouds.7 mph66%29.89 "Hg5 mi
1:05 pm81 °FRain. Broken clouds.8 mph66%29.92 "Hg4 mi
12:35 pm82 °FBroken clouds.5 mph70%29.92 "Hg4 mi
11:35 am81 °FBroken clouds.2 mph70%29.95 "Hg5 mi
11:05 am79 °FBroken clouds.2 mph74%29.95 "Hg5 mi
10:35 am77 °FBroken clouds.3 mph79%29.95 "Hg5 mi
10:05 am75 °FBroken clouds.3 mph83%29.95 "Hg5 mi
9:35 am75 °FBroken clouds.2 mph83%29.95 "Hg5 mi
9:05 am75 °FBroken clouds.2 mph83%29.98 "Hg5 mi
8:35 am73 °FBroken clouds.2 mph89%29.98 "Hg4 mi
8:05 am72 °FBroken clouds.No wind94%29.95 "Hg4 mi
6:35 am68 °FBroken clouds.3 mph100%29.95 "Hg4 mi
6:05 am68 °FPartly cloudy.5 mph100%29.95 "Hg4 mi
5:35 am68 °FPartly cloudy.3 mph100%29.95 "Hg4 mi
4:35 am70 °FPartly cloudy.2 mph100%29.92 "Hg4 mi
4:05 am70 °FPartly cloudy.2 mph94%29.92 "Hg4 mi
2:05 am70 °FRain. Mostly cloudy.No wind94%29.95 "Hg4 mi
1:35 am70 °FRain. Mostly cloudy.No wind100%29.98 "Hg4 mi
1:05 am70 °FRain. Mostly cloudy.No wind100%29.98 "Hg4 mi
12:35 am70 °FLight rain. Partly cloudy.No wind100%29.98 "Hg4 mi
12:05 am70 °FRain. Partly cloudy.2 mph94%29.98 "Hg4 mi
11:35 pm
Sat, Aug 24
70 °FLight rain. Partly cloudy.2 mph94%29.98 "Hg4 mi
11:05 pm70 °FRain. Partly cloudy.2 mph94%29.98 "Hg4 mi
10:35 pm70 °FLight rain. Partly cloudy.No wind100%29.98 "Hg4 mi
10:05 pm70 °FLight rain. Partly cloudy.2 mph100%29.98 "Hg4 mi
9:35 pm70 °FRain. Partly cloudy.2 mph100%29.95 "Hg4 mi
9:05 pm70 °FRain. Partly cloudy.3 mph100%29.95 "Hg4 mi
8:35 pm70 °FLight rain. Partly cloudy.5 mph100%29.95 "Hg4 mi
8:05 pm72 °FLight rain. Partly cloudy.6 mph94%29.92 "Hg4 mi
7:35 pm72 °FLight rain. Partly cloudy.7 mph94%29.92 "Hg4 mi
7:05 pm73 °FRain. Broken clouds.9 mph89%29.89 "Hg4 mi
Weather by CustomWeather, © 2019

See weather overview